Weather History for MZBZ - June, 2013

Change the Weather History Date:

Wednesday, June 26, 2013

  Actual Average Record
Temperature  
Mean Temperature 82 °F -  
Max Temperature 89 °F 88 °F 89 °F (1998)
Min Temperature 76 °F 76 °F 72 °F (2012)
Cooling Degree Days 18    
Growing Degree Days 32 (Base 50)    
Moisture  
Dew Point 76 °F    
Average Humidity 77    
Maximum Humidity 94    
Minimum Humidity 63    
Precipitation  
Precipitation 0.00 in 0.32 in - ()
Sea Level Pressure  
Sea Level Pressure 29.96 in    
Wind  
Wind Speed 4 mph ()    
Max Wind Speed 9 mph    
Max Gust Speed -    
Visibility 8.3 miles    
Events      
Averages and records for this station are not official NWS values.
T = Trace of Precipitation, MM = Missing Value Source: Averaged Metar Reports

Daily Weather History Graph

Daily Weather History Graph

Search for Another Location

Airport or City:

Trip Planner

Search our weather history database for the weather conditions in past years. The results will help you decide how hot, cold, wet, or windy it might be!

Date:

Astronomy

Jun. 26, 2013 Rise Set
Actual Time 5:20 AM CST 6:31 PM CST
Civil Twilight 4:56 AM CST 6:55 PM CST
Nautical Twilight 4:28 AM CST 7:24 PM CST
Astronomical Twilight 3:58 AM CST 7:53 PM CST
Moon 9:32 PM CST (6/26) 8:40 AM CST (6/26)
Length of Visible Light 13h 58m
Length of Day
13h 10m
Waning Gibbous, 85% of the Moon is Illuminated
Jun 26
Waning Gibbous
Jun 29
Last Quarter
Jul 8
New
Jul 15
First Quarter
Jul 22
Full

Hourly Weather History & Observations

Time (CST) Temp. Heat Index Dew Point Humidity Pressure Visibility Wind Dir Wind Speed Gust Speed Precip Events Conditions
12:00 AM 82 °F - 77 °F 81% 29.98 in 12 mi East 6.9 mph - -   Partly Cloudy
3:00 AM 78 °F - 76 °F 92% 29.94 in 12 mi Calm Calm - -   Mostly Cloudy
5:00 AM 78.8 °F - 77.0 °F 94% 29.92 in 6.2 mi Calm Calm - N/A   Mostly Cloudy
6:00 AM 77 °F - 75 °F 93% 29.96 in 12 mi Calm Calm - -   Partly Cloudy
6:00 AM 77.0 °F - 75.2 °F 94% 29.95 in 6.2 mi Calm Calm - N/A   Mostly Cloudy
7:00 AM 78.8 °F - 75.2 °F 89% 29.95 in 6.2 mi Calm Calm - N/A   Mostly Cloudy
8:00 AM 82.4 °F 90.9 °F 77.0 °F 84% 29.98 in 6.2 mi East 6.9 mph - N/A   Mostly Cloudy
9:00 AM 86 °F - 76 °F 66% 29.99 in 12 mi East 6.9 mph - -   Partly Cloudy
9:00 AM 86.0 °F 96.9 °F 77.0 °F 74% 29.99 in 6.2 mi East 6.9 mph - N/A   Mostly Cloudy
10:00 AM 87.8 °F 99.7 °F 77.0 °F 70% 29.99 in 6.2 mi East 8.1 mph - N/A   Mostly Cloudy
11:00 AM 87.8 °F 99.7 °F 77.0 °F 70% 29.98 in 6.2 mi East 5.8 mph - N/A   Mostly Cloudy
12:00 PM 87 °F - 77 °F 66% 29.99 in 12 mi East 8.1 mph - -   Mostly Cloudy
12:00 PM 87.8 °F 99.7 °F 77.0 °F 70% 29.98 in 6.2 mi East 8.1 mph - N/A   Mostly Cloudy
1:00 PM 87.8 °F 99.7 °F 77.0 °F 70% 29.97 in 6.2 mi East 9.2 mph - N/A   Mostly Cloudy
2:00 PM 87.8 °F 99.7 °F 77.0 °F 70% 29.96 in 6.2 mi East 9.2 mph - N/A   Mostly Cloudy
3:00 PM 86 °F - 75 °F 63% 29.95 in 12 mi East 9.2 mph - -   Scattered Clouds
3:00 PM 86.0 °F 95.1 °F 75.2 °F 70% 29.94 in 6.2 mi East 9.2 mph - N/A   Mostly Cloudy
4:00 PM 87.8 °F 99.7 °F 77.0 °F 70% 29.92 in 6.2 mi East 8.1 mph - N/A   Mostly Cloudy
5:00 PM 84.2 °F 94.1 °F 77.0 °F 79% 29.92 in 6.2 mi East 8.1 mph - N/A   Mostly Cloudy
6:00 PM 84 °F - 78 °F 76% 29.93 in 12 mi East 8.1 mph - -   Scattered Clouds
6:00 PM 84.2 °F 94.1 °F 77.0 °F 79% 29.92 in 6.2 mi East 8.1 mph - N/A   Mostly Cloudy
9:00 PM 83 °F - 76 °F 74% 29.99 in 12 mi East 4.6 mph - -   Scattered Clouds